Search for airport 
image banner adimage banner adimage banner ad
image banner ad

TLPC - Castries/George F. Charles - Int

Located in Castries, Saint Lucia

ICAO - TLPC, IATA - SLU

Data provided by Airmate  

General information

Coordinates: N14°1'12" W60°59'35"
Elevation is 22 feet MSL.
 
Rated:
View ratings:
[VIEW]
View others Airports in Castries

Operational data

Special qualification required
Current time UTC:
Current local time:
Weather
METAR: TLPC 082200Z 09007KT 9999 SCT021 BKN042 27/23 Q1016 NOSIG
TAF: TAF COR TLPC 081712Z 0818/0918 11012KT 9999 SCT024 BKN045 TEMPO 0821/0909 5000 SHRA FEW008 FEW015CB BKN018 BKN040 PROB30 TEMPO 0822/0902 4000 TSRA FEW008 FEW014CB BKN016 BKN040
View NOTAMs / SUP AIP / TFR affecting this airport [VIEW]
Communications frequencies: [VIEW]

Runways:

RWY identifierQFULength (ft)Width (ft)SurfaceLDA (ft)
0975°6227148ASP
27255°6227148

Airport contact information

Address: Castries Saint Lucia

Satellite view of TLPC